Voltar ao catálogo

STARLINK-31956

AtivoComunicaçõesVLEO
NORAD 59930·PAYLOAD·🇺🇸 United States

Lançado Jun 1, 2024 de Cape Canaveral Space Force Station

Loading…

Próximas Passagens (próximas 24 horas)

TLE

AtualizadoSource: CelesTrak SupGP

Época: Sep 14, 2026, 21:19 UTC

1 59930C 24106J   26257.88868056 -.00014089  00000+0 -51031-3 0  2573
2 59930  43.0014 343.9966 0001359 267.6609 275.2496 15.27585437    17

Acompanhe STARLINK-31956 em tempo real com AllMySat

Download on the App Store